Time,TemperatureF,DewpointF,PressureIn,WindDirection,WindDirectionDegrees,WindSpeedMPH,WindSpeedGustMPH,Humidity,HourlyPrecipIn,Conditions,Clouds,dailyrainin,SoftwareType,DateUTC
2013-02-07 00:02:00,37.0,29.0,30.07,SSE,160,12.0,12.0,72,0.00,,,0.00,,2013-02-07 06:02:00,
2013-02-07 00:11:00,37.0,29.0,30.07,SSE,160,12.0,12.0,72,0.00,,,0.00,,2013-02-07 06:11:00,
2013-02-07 00:22:00,37.0,29.0,30.07,SSE,160,12.0,12.0,72,0.00,,,0.00,,2013-02-07 06:22:00,
2013-02-07 00:32:00,36.0,30.0,30.05,SSE,160,14.0,14.0,78,0.00,,,0.00,,2013-02-07 06:32:00,
2013-02-07 00:43:00,36.0,30.0,30.05,SSE,160,14.0,14.0,78,0.00,,,0.00,,2013-02-07 06:43:00,
2013-02-07 00:52:00,36.0,30.0,30.05,SSE,160,14.0,14.0,78,0.00,,,0.00,,2013-02-07 06:52:00,
2013-02-07 01:01:00,36.0,30.0,30.05,SSE,160,14.0,14.0,78,0.00,,,0.00,,2013-02-07 07:01:00,
2013-02-07 01:11:00,36.0,30.0,30.05,SSE,160,14.0,14.0,78,0.00,,,0.00,,2013-02-07 07:11:00,
2013-02-07 01:22:00,36.0,30.0,30.05,SSE,160,14.0,14.0,78,0.00,,,0.00,,2013-02-07 07:22:00,
2013-02-07 01:32:00,37.0,30.0,30.05,South,180,15.0,15.0,75,0.00,,,0.00,,2013-02-07 07:32:00,
2013-02-07 01:41:00,37.0,30.0,30.05,South,180,15.0,15.0,75,0.00,,,0.00,,2013-02-07 07:41:00,
2013-02-07 01:52:00,37.0,30.0,30.05,South,180,15.0,15.0,75,0.00,,,0.00,,2013-02-07 07:52:00,
2013-02-07 02:01:00,37.0,30.0,30.05,South,180,15.0,15.0,75,0.00,,,0.00,,2013-02-07 08:01:00,
2013-02-07 02:11:00,37.0,30.0,30.05,South,180,15.0,15.0,75,0.00,,,0.00,,2013-02-07 08:11:00,
2013-02-07 02:21:00,37.0,30.0,30.05,South,180,15.0,15.0,75,0.00,,,0.00,,2013-02-07 08:21:00,
2013-02-07 02:32:00,35.0,31.0,30.03,SSE,160,13.0,26.0,84,0.02,,,0.02,,2013-02-07 08:32:00,
2013-02-07 02:42:00,35.0,31.0,30.03,SSE,160,13.0,26.0,84,0.02,,,0.02,,2013-02-07 08:42:00,
2013-02-07 02:52:00,35.0,31.0,30.03,SSE,160,13.0,26.0,84,0.02,,,0.02,,2013-02-07 08:52:00,
2013-02-07 03:02:00,35.0,31.0,30.03,SSE,160,13.0,26.0,84,0.02,,,0.02,,2013-02-07 09:02:00,
2013-02-07 03:11:00,35.0,31.0,30.03,SSE,160,13.0,26.0,84,0.02,,,0.02,,2013-02-07 09:11:00,
2013-02-07 03:32:00,36.0,31.0,30.01,South,170,14.0,14.0,81,0.02,,,0.04,,2013-02-07 09:32:00,
2013-02-07 03:42:00,36.0,31.0,30.01,South,170,14.0,14.0,81,0.02,,,0.04,,2013-02-07 09:42:00,
2013-02-07 03:52:00,36.0,31.0,30.01,South,170,14.0,14.0,81,0.02,,,0.04,,2013-02-07 09:52:00,
2013-02-07 04:01:00,36.0,31.0,30.01,South,170,14.0,14.0,81,0.02,,,0.04,,2013-02-07 10:01:00,
2013-02-07 04:11:00,36.0,31.0,30.01,South,170,14.0,14.0,81,0.02,,,0.04,,2013-02-07 10:11:00,
2013-02-07 04:22:00,36.0,31.0,30.01,South,170,14.0,14.0,81,0.02,,,0.04,,2013-02-07 10:22:00,
2013-02-07 04:32:00,35.0,31.0,30.03,South,170,6.0,6.0,84,0.01,,,0.05,,2013-02-07 10:32:00,
2013-02-07 04:42:00,35.0,31.0,30.03,South,170,6.0,6.0,84,0.01,,,0.05,,2013-02-07 10:42:00,
2013-02-07 04:52:00,35.0,31.0,30.03,South,170,6.0,6.0,84,0.01,,,0.05,,2013-02-07 10:52:00,
2013-02-07 05:01:00,35.0,31.0,30.03,South,170,6.0,6.0,84,0.01,,,0.05,,2013-02-07 11:01:00,
2013-02-07 05:11:00,35.0,31.0,30.03,South,170,6.0,6.0,84,0.01,,,0.05,,2013-02-07 11:11:00,
2013-02-07 05:23:00,35.0,31.0,30.03,South,170,6.0,6.0,84,0.01,,,0.05,,2013-02-07 11:23:00,
2013-02-07 05:32:00,35.0,32.0,30.02,ESE,110,6.0,6.0,88,0.00,,,0.05,,2013-02-07 11:32:00,
2013-02-07 05:44:00,35.0,32.0,30.02,ESE,110,6.0,6.0,88,0.00,,,0.05,,2013-02-07 11:44:00,
2013-02-07 05:53:00,35.0,32.0,30.02,ESE,110,6.0,6.0,88,0.00,,,0.05,,2013-02-07 11:53:00,
2013-02-07 06:02:00,35.0,32.0,30.02,ESE,110,6.0,6.0,88,0.00,,,0.05,,2013-02-07 12:02:00,
2013-02-07 06:11:00,35.0,32.0,30.02,ESE,110,6.0,6.0,88,0.00,,,0.05,,2013-02-07 12:11:00,
2013-02-07 06:22:00,35.0,32.0,30.02,ESE,110,6.0,6.0,88,0.00,,,0.05,,2013-02-07 12:22:00,
2013-02-07 06:32:00,35.0,31.0,30.03,SE,140,7.0,7.0,84,0.03,,,0.08,,2013-02-07 12:32:00,
2013-02-07 06:42:00,35.0,31.0,30.03,SE,140,7.0,7.0,84,0.03,,,0.08,,2013-02-07 12:42:00,
2013-02-07 06:53:00,35.0,31.0,30.03,SE,140,7.0,7.0,84,0.03,,,0.08,,2013-02-07 12:53:00,
2013-02-07 07:02:00,35.0,32.0,30.01,SE,130,8.0,8.0,88,0.03,,,0.08,,2013-02-07 13:02:00,
2013-02-07 07:12:00,35.0,32.0,30.01,SE,130,8.0,8.0,88,0.03,,,0.08,,2013-02-07 13:12:00,
2013-02-07 07:22:00,35.0,32.0,30.01,SE,130,8.0,8.0,88,0.03,,,0.08,,2013-02-07 13:22:00,
2013-02-07 07:32:00,35.0,32.0,30.00,SSE,150,8.0,8.0,88,0.04,,,0.12,,2013-02-07 13:32:00,
2013-02-07 07:42:00,35.0,32.0,30.00,SSE,150,8.0,8.0,88,0.04,,,0.12,,2013-02-07 13:42:00,
2013-02-07 07:52:00,35.0,32.0,30.00,SSE,150,8.0,8.0,88,0.04,,,0.12,,2013-02-07 13:52:00,
2013-02-07 08:01:00,35.0,32.0,30.00,SSE,150,8.0,8.0,88,0.04,,,0.12,,2013-02-07 14:01:00,
2013-02-07 08:11:00,35.0,32.0,30.00,SSE,150,8.0,8.0,88,0.04,,,0.12,,2013-02-07 14:11:00,
2013-02-07 08:22:00,35.0,32.0,30.00,SSE,150,8.0,8.0,88,0.04,,,0.12,,2013-02-07 14:22:00,
2013-02-07 08:32:00,36.0,32.0,29.99,SSE,160,10.0,10.0,85,0.06,,,0.18,,2013-02-07 14:32:00,
2013-02-07 08:42:00,36.0,32.0,29.99,SSE,160,10.0,10.0,85,0.06,,,0.18,,2013-02-07 14:42:00,
2013-02-07 08:52:00,36.0,32.0,29.99,SSE,160,10.0,10.0,85,0.06,,,0.18,,2013-02-07 14:52:00,
2013-02-07 09:02:00,36.0,32.0,29.99,SSE,150,9.0,10.0,85,0.06,,,0.18,,2013-02-07 15:02:00,
2013-02-07 09:11:00,36.0,32.0,29.99,SSE,150,9.0,10.0,85,0.06,,,0.18,,2013-02-07 15:11:00,
2013-02-07 09:22:00,36.0,32.0,29.99,SSE,150,9.0,10.0,85,0.06,,,0.18,,2013-02-07 15:22:00,
2013-02-07 09:32:00,35.0,33.0,29.98,SSE,160,8.0,8.0,92,0.02,,,0.20,,2013-02-07 15:32:00,
2013-02-07 09:42:00,35.0,33.0,29.98,SSE,160,8.0,8.0,92,0.02,,,0.20,,2013-02-07 15:42:00,
2013-02-07 09:52:00,35.0,33.0,29.98,SSE,160,8.0,8.0,92,0.02,,,0.20,,2013-02-07 15:52:00,
2013-02-07 10:01:00,35.0,33.0,29.97,SSE,150,8.0,8.0,92,0.02,,,0.20,,2013-02-07 16:01:00,
2013-02-07 10:11:00,35.0,33.0,29.97,SSE,150,8.0,8.0,92,0.02,,,0.20,,2013-02-07 16:11:00,
2013-02-07 10:21:00,35.0,33.0,29.97,SSE,150,8.0,8.0,92,0.02,,,0.20,,2013-02-07 16:21:00,
2013-02-07 10:32:00,35.0,33.0,29.97,SSE,150,8.0,8.0,92,0.02,,,0.20,,2013-02-07 16:32:00,
2013-02-07 10:41:00,35.0,33.0,29.97,SSE,150,8.0,8.0,92,0.02,,,0.20,,2013-02-07 16:41:00,
2013-02-07 11:01:00,35.0,33.0,29.96,SSE,150,8.0,8.0,92,0.01,,,0.21,,2013-02-07 17:01:00,
2013-02-07 11:11:00,35.0,33.0,29.96,SSE,150,8.0,8.0,92,0.01,,,0.21,,2013-02-07 17:11:00,
2013-02-07 11:21:00,35.0,33.0,29.96,SSE,150,8.0,8.0,92,0.01,,,0.21,,2013-02-07 17:21:00,
2013-02-07 11:32:00,36.0,34.0,29.95,SSE,150,5.0,7.0,92,0.01,,,0.22,,2013-02-07 17:32:00,
2013-02-07 11:42:00,36.0,34.0,29.95,SSE,150,5.0,7.0,92,0.01,,,0.22,,2013-02-07 17:42:00,
2013-02-07 11:52:00,36.0,34.0,29.95,SSE,150,5.0,7.0,92,0.01,,,0.22,,2013-02-07 17:52:00,
2013-02-07 12:01:00,36.0,34.0,29.94,SSE,150,5.0,5.0,92,0.01,,,0.22,,2013-02-07 18:01:00,
2013-02-07 12:11:00,36.0,34.0,29.94,SSE,150,5.0,5.0,92,0.01,,,0.22,,2013-02-07 18:11:00,
2013-02-07 12:23:00,36.0,34.0,29.94,SSE,150,5.0,5.0,92,0.01,,,0.22,,2013-02-07 18:23:00,
2013-02-07 12:32:00,36.0,35.0,29.91,South,170,5.0,5.0,96,0.02,,,0.24,,2013-02-07 18:32:00,
2013-02-07 12:42:00,36.0,35.0,29.91,South,170,5.0,5.0,96,0.02,,,0.24,,2013-02-07 18:42:00,
2013-02-07 12:52:00,36.0,35.0,29.91,South,170,5.0,5.0,96,0.02,,,0.24,,2013-02-07 18:52:00,
2013-02-07 13:01:00,37.0,35.0,29.91,South,180,6.0,6.0,92,0.02,,,0.24,,2013-02-07 19:01:00,
2013-02-07 13:11:00,37.0,35.0,29.91,South,180,6.0,6.0,92,0.02,,,0.24,,2013-02-07 19:11:00,
2013-02-07 13:22:00,37.0,35.0,29.91,South,180,6.0,6.0,92,0.02,,,0.24,,2013-02-07 19:22:00,
2013-02-07 13:32:00,37.0,35.0,29.90,SSW,210,6.0,6.0,92,0.03,,,0.27,,2013-02-07 19:32:00,
2013-02-07 13:41:00,37.0,35.0,29.90,SSW,210,6.0,6.0,92,0.03,,,0.27,,2013-02-07 19:41:00,
2013-02-07 13:52:00,37.0,35.0,29.90,SSW,210,6.0,6.0,92,0.03,,,0.27,,2013-02-07 19:52:00,
2013-02-07 14:01:00,37.0,36.0,29.88,South,180,5.0,6.0,95,0.03,,,0.27,,2013-02-07 20:01:00,
2013-02-07 14:11:00,37.0,36.0,29.88,South,180,5.0,6.0,95,0.03,,,0.27,,2013-02-07 20:11:00,
2013-02-07 14:22:00,37.0,36.0,29.88,South,180,5.0,6.0,95,0.03,,,0.27,,2013-02-07 20:22:00,
2013-02-07 14:31:00,37.0,36.0,29.87,South,180,0.0,0.0,95,0.04,,,0.31,,2013-02-07 20:31:00,
2013-02-07 14:41:00,37.0,36.0,29.87,South,180,0.0,0.0,95,0.04,,,0.31,,2013-02-07 20:41:00,
2013-02-07 14:52:00,37.0,36.0,29.87,South,180,0.0,0.0,95,0.04,,,0.31,,2013-02-07 20:52:00,
2013-02-07 15:02:00,37.0,36.0,29.87,South,180,0.0,0.0,95,0.04,,,0.31,,2013-02-07 21:02:00,
2013-02-07 15:11:00,37.0,36.0,29.87,South,180,0.0,0.0,95,0.04,,,0.31,,2013-02-07 21:11:00,
2013-02-07 15:21:00,37.0,36.0,29.87,South,180,0.0,0.0,95,0.04,,,0.31,,2013-02-07 21:21:00,
2013-02-07 15:32:00,37.0,36.0,29.87,SW,220,5.0,5.0,95,0.07,,,0.38,,2013-02-07 21:32:00,
2013-02-07 15:42:00,37.0,36.0,29.87,SW,220,5.0,5.0,95,0.07,,,0.38,,2013-02-07 21:42:00,
2013-02-07 15:52:00,37.0,36.0,29.87,SW,220,5.0,5.0,95,0.07,,,0.38,,2013-02-07 21:52:00,
2013-02-07 16:02:00,37.0,36.0,29.87,West,270,5.0,5.0,95,0.07,,,0.38,,2013-02-07 22:02:00,
2013-02-07 16:11:00,37.0,36.0,29.87,West,270,5.0,5.0,95,0.07,,,0.38,,2013-02-07 22:11:00,
2013-02-07 16:21:00,37.0,36.0,29.87,West,270,5.0,5.0,95,0.07,,,0.38,,2013-02-07 22:21:00,
2013-02-07 16:32:00,37.0,36.0,29.86,NW,320,3.0,3.0,95,0.02,,,0.40,,2013-02-07 22:32:00,
2013-02-07 16:42:00,37.0,36.0,29.86,NW,320,3.0,3.0,95,0.02,,,0.40,,2013-02-07 22:42:00,
2013-02-07 16:52:00,37.0,36.0,29.86,NW,320,3.0,3.0,95,0.02,,,0.40,,2013-02-07 22:52:00,
2013-02-07 17:01:00,37.0,36.0,29.86,WNW,300,3.0,3.0,95,0.02,,,0.40,,2013-02-07 23:01:00,
2013-02-07 17:11:00,37.0,36.0,29.86,WNW,300,3.0,3.0,95,0.02,,,0.40,,2013-02-07 23:11:00,
2013-02-07 17:21:00,37.0,36.0,29.86,WNW,300,3.0,3.0,95,0.02,,,0.40,,2013-02-07 23:21:00,
2013-02-07 17:32:00,37.0,36.0,29.86,WNW,300,3.0,3.0,95,0.02,,,0.40,,2013-02-07 23:32:00,
2013-02-07 18:01:00,37.0,35.0,29.89,NW,320,5.0,5.0,92,0.01,,,0.41,,2013-02-08 00:01:00,
2013-02-07 18:11:00,37.0,35.0,29.89,NW,320,5.0,5.0,92,0.01,,,0.41,,2013-02-08 00:11:00,
2013-02-07 18:21:00,37.0,35.0,29.89,NW,320,5.0,5.0,92,0.01,,,0.41,,2013-02-08 00:21:00,
2013-02-07 18:32:00,37.0,35.0,29.90,NNW,330,5.0,5.0,92,0.01,,,0.42,,2013-02-08 00:32:00,
2013-02-07 18:42:00,37.0,35.0,29.90,NNW,330,5.0,5.0,92,0.01,,,0.42,,2013-02-08 00:42:00,
2013-02-07 18:52:00,37.0,35.0,29.90,NNW,330,5.0,5.0,92,0.01,,,0.42,,2013-02-08 00:52:00,
2013-02-07 19:01:00,37.0,35.0,29.92,NW,320,6.0,6.0,92,0.01,,,0.42,,2013-02-08 01:01:00,
2013-02-07 19:11:00,37.0,35.0,29.92,NW,320,6.0,6.0,92,0.01,,,0.42,,2013-02-08 01:11:00,
2013-02-07 19:21:00,37.0,35.0,29.92,NW,320,6.0,6.0,92,0.01,,,0.42,,2013-02-08 01:21:00,
2013-02-07 19:31:00,37.0,35.0,29.93,NW,310,7.0,7.0,92,0.00,,,0.42,,2013-02-08 01:31:00,
2013-02-07 19:41:00,37.0,35.0,29.93,NW,310,7.0,7.0,92,0.00,,,0.42,,2013-02-08 01:41:00,
2013-02-07 19:52:00,37.0,35.0,29.93,NW,310,7.0,7.0,92,0.00,,,0.42,,2013-02-08 01:52:00,
2013-02-07 20:01:00,37.0,35.0,29.94,NW,320,8.0,8.0,92,0.00,,,0.42,,2013-02-08 02:01:00,
2013-02-07 20:11:00,37.0,35.0,29.94,NW,320,8.0,8.0,92,0.00,,,0.42,,2013-02-08 02:11:00,
2013-02-07 20:21:00,37.0,35.0,29.94,NW,320,8.0,8.0,92,0.00,,,0.42,,2013-02-08 02:21:00,
2013-02-07 20:32:00,36.0,34.0,29.95,NW,320,12.0,24.0,92,0.00,,,0.42,,2013-02-08 02:32:00,
2013-02-07 20:42:00,36.0,34.0,29.95,NW,320,12.0,24.0,92,0.00,,,0.42,,2013-02-08 02:42:00,
2013-02-07 20:52:00,36.0,34.0,29.95,NW,320,12.0,24.0,92,0.00,,,0.42,,2013-02-08 02:52:00,
2013-02-07 21:01:00,36.0,34.0,29.95,NW,320,12.0,24.0,92,0.00,,,0.42,,2013-02-08 03:01:00,
2013-02-07 21:12:00,36.0,34.0,29.95,NW,320,12.0,24.0,92,0.00,,,0.42,,2013-02-08 03:12:00,
2013-02-07 21:22:00,36.0,34.0,29.95,NW,320,12.0,24.0,92,0.00,,,0.42,,2013-02-08 03:22:00,
2013-02-07 21:32:00,35.0,33.0,29.98,NW,320,13.0,24.0,92,0.00,,,0.42,,2013-02-08 03:32:00,
2013-02-07 21:41:00,35.0,33.0,29.98,NW,320,13.0,24.0,92,0.00,,,0.42,,2013-02-08 03:41:00,
2013-02-07 21:52:00,35.0,33.0,29.98,NW,320,13.0,24.0,92,0.00,,,0.42,,2013-02-08 03:52:00,
2013-02-07 22:01:00,35.0,33.0,29.98,NW,320,13.0,24.0,92,0.00,,,0.42,,2013-02-08 04:01:00,
2013-02-07 22:11:00,35.0,33.0,29.98,NW,320,13.0,24.0,92,0.00,,,0.42,,2013-02-08 04:11:00,
2013-02-07 22:21:00,35.0,33.0,29.98,NW,320,13.0,24.0,92,0.00,,,0.42,,2013-02-08 04:21:00,
2013-02-07 22:32:00,35.0,32.0,29.99,NNW,330,10.0,10.0,88,0.00,,,0.42,,2013-02-08 04:32:00,
2013-02-07 22:41:00,35.0,32.0,29.99,NNW,330,10.0,10.0,88,0.00,,,0.42,,2013-02-08 04:41:00,
2013-02-07 22:52:00,35.0,32.0,29.99,NNW,330,10.0,10.0,88,0.00,,,0.42,,2013-02-08 04:52:00,
2013-02-07 23:02:00,35.0,32.0,29.99,NNW,330,10.0,10.0,88,0.00,,,0.42,,2013-02-08 05:02:00,
2013-02-07 23:11:00,35.0,32.0,29.99,NNW,330,10.0,10.0,88,0.00,,,0.42,,2013-02-08 05:11:00,
2013-02-07 23:22:00,35.0,32.0,29.99,NNW,330,10.0,10.0,88,0.00,,,0.42,,2013-02-08 05:22:00,
2013-02-07 23:32:00,35.0,32.0,30.00,NNW,330,9.0,10.0,88,0.00,,,0.42,,2013-02-08 05:32:00,
2013-02-07 23:42:00,35.0,32.0,30.00,NNW,330,9.0,10.0,88,0.00,,,0.42,,2013-02-08 05:42:00,
2013-02-07 23:52:00,35.0,32.0,30.00,NNW,330,9.0,10.0,88,0.00,,,0.42,,2013-02-08 05:52:00,